Location: Bottom School (historical)
(37.9078°N, 89.3593°W)
Time: 05:53:33
(UTC+00:00)

DELFI C3 - Visible Passes

Search period start: 23 March 2023 00:00
Search period end: 02 April 2023 00:00
Orbit: 478 x 492 km, 97.3° (Epoch: 22 March)

Date Brightness Start Highest point End Pass type
(mag) Time Alt. Az. Time Alt. Az. Time Alt. Az.
23 Mar ? 00:31:38 10° S 00:35:11 82° WSW 00:38:46 10° NNW visible
25 Mar ? 01:17:10 10° SW 01:19:48 19° W 01:22:26 10° NW visible
26 Mar ? 00:51:43 10° S 00:55:05 41° W 00:58:29 10° NNW visible
28 Mar ? 01:38:12 10° WSW 01:39:11 11° W 01:40:10 10° WNW visible
29 Mar ? 01:11:14 10° SSW 01:14:06 23° W 01:16:58 10° NW visible
30 Mar ? 00:45:33 10° S 00:49:00 50° W 00:52:28 10° NNW visible
01 Apr ? 01:30:24 10° SW 01:32:13 13° W 01:34:02 10° WNW visible
